[[{"header":{"parameterUnit":"m.s-1","parameterCategory":1,"la1":30.2991,"la2":30.254,"lo1":-89.0895,"lo2":-89.0444,"dy":0.0017,"dx":0.0017,"nx":28,"ny":28,"refTime":"2025-08-23T09:00:00:Z","depth":0,"parameterNumber":2,"parameterNumberName":"U-component_of_WINDS"},"data":[0,0,0,0,0,0,0,0,0,0,0,0,0,0,0,0,0,0,0,0,0,0,0,0,0,0,0,0,0,0,0,0,0,0,0,0,0,0,0,0,0,0,0,0,0,0,0,0,0,0,0,0,0,0,0,0,0,0,3.6917,3.692,0,3.7139,3.7142,3.7144,3.7142,3.7139,3.7136,3.7133,3.7364,3.7373,3.7382,0,0,0,0,0,0,0,0,0,0,0,0,0,3.6495,3.6503,3.6917,3.692,3.6923,3.7139,3.7142,3.7145,3.7142,3.7139,3.7135,3.7132,3.7361,3.7372,3.7382,0,0,0,0,0,0,0,0,0,0,0,0,0,3.6694,3.6505,3.6917,3.6947,3.6952,3.7138,3.7142,3.7146,3.7143,3.7138,3.7134,3.713,3.7358,3.7371,3.7384,3.7555,0,0,3.7425,3.743,0,0,0,0,0,0,0,0,3.6683,3.6709,3.694,3.6946,3.6951,3.7108,3.7078,3.7283,3.7144,3.7071,3.7133,3.7128,3.7283,3.7302,3.7353,3.7566,3.7576,3.7426,3.7434,3.744,3.7443,0,0,0,0,0,0,0,3.6669,3.67,3.7005,3.6944,3.6951,3.6951,3.6975,3.7117,3.7199,3.7077,3.7077,3.7103,3.7285,3.7341,3.7359,3.7579,3.7425,3.7437,3.7446,3.7451,3.7943,3.7947,0,0,0,0,0,0,3.6648,3.6688,3.6998,3.7012,3.6803,3.6962,3.6988,3.7062,3.7197,3.7214,3.7107,3.7102,3.732,3.7343,3.7367,3.7576,3.744,3.7452,3.746,3.7938,3.7944,3.7949,0,0,0,0,0,0,3.6639,3.6676,3.6989,3.685,3.689,3.6974,3.7057,3.7069,3.7124,3.722,3.7235,3.7148,3.7317,3.7348,3.7508,3.7584,3.7458,3.747,3.7932,3.794,3.7947,3.7995,0,0,0,0,0,0,3.6627,3.6673,3.6738,3.6852,3.6898,3.7125,3.7062,3.7077,3.7147,3.7143,3.7263,3.7278,3.7316,3.7488,3.7521,3.76,3.7481,3.7925,3.7935,3.7944,3.7987,3.8003,3.8017,0,0,0,0,0,3.6612,3.6743,3.6741,3.6778,3.6981,3.713,3.7156,3.7196,3.7153,3.722,3.7281,3.7275,3.757,3.7504,3.7542,3.7626,3.7921,3.7932,3.7943,3.798,3.8,3.8017,0,0,0,0,0,0,3.6638,3.6759,3.6758,3.693,3.7019,3.7129,3.7214,3.7216,3.732,3.7313,3.7359,3.7386,3.7545,3.7602,3.7526,3.7798,3.774,3.776,3.7755,3.7775,3.779,3.7773,3.7492,0,0,0,0,0,3.6663,3.6773,3.6874,3.7016,3.7061,3.713,3.7196,3.7219,3.7314,3.7352,3.7425,3.7519,3.7633,3.7707,3.7817,3.7995,3.8021,3.8071,3.8086,3.8098,3.8114,3.8212,3.8236,3.7987,3.7986,3.7986,0,0,3.6718,3.6797,3.6864,3.7023,3.7095,3.7209,3.7162,3.7284,3.7369,3.7372,3.7526,3.7583,3.7691,3.786,3.7938,3.7912,3.8189,3.8113,3.8121,3.8132,3.8226,3.825,3.8271,3.7994,3.7993,3.7992,0,0,3.6874,3.6946,3.7072,3.7144,3.7253,3.7298,3.7328,3.7438,3.7476,3.7631,3.7635,3.7738,3.7933,3.8009,3.8074,3.8259,3.8257,3.8293,3.8372,3.8467,3.8487,3.8504,3.857,3.8593,3.8309,3.8309,3.831,0,3.6928,3.7099,3.7137,3.7259,3.7329,3.7335,3.7463,3.7532,3.7673,3.7721,3.7689,3.7934,3.8007,3.8194,3.8238,3.8291,3.8327,3.828,3.8481,3.8499,3.8516,3.8579,3.8603,3.8313,3.8313,3.8312,3.8312,0,3.7159,3.7277,3.7366,3.7499,3.7579,3.7704,3.7762,3.7839,3.7854,3.7903,3.8061,3.8149,3.8277,3.8323,3.834,3.8513,3.8493,3.847,3.8413,3.8542,3.8603,3.8627,3.8318,3.8317,3.8316,3.8315,0,0,3.734,3.7491,3.7523,3.7583,3.7704,3.7796,3.7922,3.8045,3.8109,3.8206,3.8312,3.8477,3.8457,3.853,3.8556,3.8639,3.878,3.8607,3.861,3.8636,3.8975,3.899,3.9018,3.8779,3.8784,3.8787,3.8965,0,3.7509,3.773,3.7767,3.7961,3.8071,3.8077,3.8187,3.8273,3.8321,3.8422,3.8477,3.8592,3.8557,3.8601,3.8684,3.8745,3.8848,3.8733,3.8879,3.8884,3.8851,3.9049,3.9067,3.923,3.8989,3.8993,3.8996,0,3.7736,3.7836,3.804,3.8145,3.8192,3.829,3.8405,3.8501,3.86,3.8629,3.871,3.8726,3.8857,3.8794,3.8976,3.8896,3.8958,3.8998,3.9005,3.902,3.8947,3.9069,3.9283,3.9308,3.9034,3.9031,3.9028,0,3.7846,3.8032,3.8178,3.823,3.8356,3.8424,3.848,3.8573,3.8645,3.8747,3.8793,3.891,3.8973,3.9063,3.9111,3.906,3.9289,3.923,3.9318,3.9317,3.9366,3.9362,3.9592,3.9406,3.9406,3.9405,3.9405,0,3.8031,3.8156,3.8229,3.8319,3.8459,3.8502,3.8639,3.8694,3.8777,3.8878,3.8892,3.8987,3.9044,3.9147,3.9185,3.933,3.9359,3.9387,3.9396,3.9386,3.9382,3.9427,3.9417,3.9412,3.9411,3.9409,3.9408,0,3.8178,3.8232,3.8392,3.8497,3.8527,3.8625,3.8716,3.8804,3.8852,3.898,3.9013,3.9088,3.9211,3.9267,3.9419,3.9444,3.9609,3.961,3.9575,3.9578,3.9663,3.9654,3.993,3.9968,3.9757,3.9759,3.9761,0,3.8292,3.8388,3.8503,3.8571,3.8628,3.8738,3.881,3.8856,3.8931,3.9049,3.9123,3.9246,3.9346,3.9542,3.9611,3.9728,3.9731,3.982,3.9749,3.9736,3.9732,3.9726,3.9736,3.9833,3.9835,3.9837,3.9838,0,3.849,3.8511,3.8614,3.8727,3.8813,3.8904,3.8994,3.9049,3.9109,3.9193,3.9317,3.9394,3.9549,3.967,3.9791,3.985,3.9855,3.986,3.9886,3.9877,3.9853,3.9867,3.961,3.9853,3.9852,3.9851,3.985,3.9849,3.8624,3.8709,3.8803,3.8917,3.8989,3.9072,3.9159,3.9217,3.9321,3.9449,3.947,3.9603,3.9698,3.986,3.9923,4.0028,4.0007,4.0046,4.0056,4.0064,4.0069,3.9836,4.0051,4.005,4.005,4.005,4.0049,0,3.8822,3.8882,3.8987,3.911,3.92,3.9195,3.9293,3.9369,3.9485,3.9573,3.9671,3.9814,3.9932,4.001,4.0129,4.0198,4.0204,4.0228,4.0224,4.0237,4.0081,4.0046,4.0222,4.0222,4.0222,4.0222,4.0222,4.0222,3.8935,3.9078,3.9111,3.929,3.935,3.9479,3.9535,3.9612,3.9682,3.9841,3.9938,3.9987,4.0072,4.0197,4.0305,4.0325,4.0368,4.0394,4.0413,4.0266,4.0248,4.0231,4.0198,4.0403,4.0403,4.056,4.0562,4.0563]},{"header":{"parameterUnit":"m.s-1","parameterCategory":1,"la1":30.2991,"la2":30.254,"lo1":-89.0895,"lo2":-89.0444,"dy":0.0017,"dx":0.0017,"nx":28,"ny":28,"refTime":"2025-08-23T09:00:00:Z","depth":0,"parameterNumber":3,"parameterNumberName":"V-component_of_WINDS"},"data":[0,0,0,0,0,0,0,0,0,0,0,0,0,0,0,0,0,0,0,0,0,0,0,0,0,0,0,0,0,0,0,0,0,0,0,0,0,0,0,0,0,0,0,0,0,0,0,0,0,0,0,0,0,0,0,0,0,0,-0.4272,-0.4271,0,-0.4231,-0.4231,-0.423,-0.4244,-0.4245,-0.4245,-0.4246,-0.4201,-0.4199,-0.4196,0,0,0,0,0,0,0,0,0,0,0,0,0,-0.4357,-0.4355,-0.4272,-0.4271,-0.4271,-0.4231,-0.4231,-0.423,-0.4244,-0.4245,-0.4246,-0.4247,-0.4201,-0.4199,-0.4196,0,0,0,0,0,0,0,0,0,0,0,0,0,-0.4318,-0.4355,-0.4272,-0.4273,-0.4272,-0.4231,-0.4231,-0.423,-0.4243,-0.4245,-0.4246,-0.4247,-0.4202,-0.4199,-0.4196,-0.415,0,0,-0.4187,-0.4185,0,0,0,0,0,0,0,0,-0.4321,-0.4315,-0.4273,-0.4273,-0.4272,-0.4244,-0.4244,-0.4203,-0.4243,-0.4254,-0.4246,-0.4248,-0.4214,-0.421,-0.4199,-0.4148,-0.4146,-0.4186,-0.4184,-0.4183,-0.4182,0,0,0,0,0,0,0,-0.4323,-0.4317,-0.4256,-0.4272,-0.4272,-0.4274,-0.427,-0.4236,-0.4227,-0.4253,-0.4254,-0.425,-0.4214,-0.4202,-0.4198,-0.4145,-0.4186,-0.4184,-0.4182,-0.4181,-0.4053,-0.4051,0,0,0,0,0,0,-0.4327,-0.4319,-0.4257,-0.4254,-0.43,-0.4271,-0.4267,-0.4252,-0.4227,-0.4225,-0.4248,-0.425,-0.4206,-0.4202,-0.4196,-0.414,-0.4183,-0.418,-0.4178,-0.4054,-0.4053,-0.4051,0,0,0,0,0,0,-0.4328,-0.4321,-0.4258,-0.4287,-0.4279,-0.4268,-0.4251,-0.425,-0.4238,-0.4224,-0.4221,-0.4238,-0.4207,-0.4201,-0.4161,-0.4138,-0.4179,-0.4176,-0.4056,-0.4054,-0.4052,-0.4026,0,0,0,0,0,0,-0.4331,-0.4322,-0.4305,-0.4287,-0.4278,-0.4225,-0.425,-0.4248,-0.4234,-0.4236,-0.4214,-0.4211,-0.4208,-0.4166,-0.4158,-0.4135,-0.4174,-0.4058,-0.4055,-0.4052,-0.4029,-0.4024,-0.4019,0,0,0,0,0,-0.4334,-0.4299,-0.4304,-0.4296,-0.4257,-0.4224,-0.4219,-0.4217,-0.4232,-0.4214,-0.4204,-0.4212,-0.4143,-0.4162,-0.4153,-0.4128,-0.406,-0.4056,-0.4053,-0.4032,-0.4025,-0.4019,0,0,0,0,0,0,-0.4313,-0.4297,-0.4302,-0.426,-0.4244,-0.4226,-0.4204,-0.421,-0.4187,-0.419,-0.4188,-0.4182,-0.4142,-0.4132,-0.4153,-0.4082,-0.4103,-0.4098,-0.409,-0.4083,-0.4078,-0.408,-0.4171,0,0,0,0,0,-0.4305,-0.4281,-0.4267,-0.4231,-0.4222,-0.4215,-0.42,-0.4201,-0.4183,-0.4175,-0.4163,-0.4144,-0.4117,-0.41,-0.4075,-0.4029,-0.4023,-0.4007,-0.4002,-0.3998,-0.3992,-0.3965,-0.3957,-0.404,-0.404,-0.404,0,0,-0.4285,-0.4273,-0.4257,-0.4227,-0.4214,-0.4187,-0.4209,-0.418,-0.416,-0.417,-0.4132,-0.4123,-0.4101,-0.4058,-0.4038,-0.4048,-0.3969,-0.3993,-0.399,-0.3987,-0.3961,-0.3953,-0.3946,-0.4037,-0.4038,-0.4038,0,0,-0.4235,-0.4225,-0.4193,-0.418,-0.4161,-0.4156,-0.4148,-0.413,-0.4124,-0.4087,-0.4093,-0.4069,-0.4025,-0.4009,-0.3995,-0.3939,-0.3944,-0.3931,-0.3903,-0.3876,-0.387,-0.3864,-0.3842,-0.3834,-0.3926,-0.3926,-0.3926,0,-0.4213,-0.4175,-0.4176,-0.4146,-0.4132,-0.4142,-0.4109,-0.4096,-0.4069,-0.4058,-0.407,-0.4014,-0.4,-0.3952,-0.3939,-0.3928,-0.3917,-0.3933,-0.3871,-0.3865,-0.3859,-0.3838,-0.3831,-0.3925,-0.3925,-0.3925,-0.3925,0,-0.4147,-0.412,-0.4097,-0.4072,-0.4055,-0.4024,-0.4019,-0.4001,-0.4003,-0.3997,-0.3957,-0.3942,-0.3913,-0.3902,-0.3903,-0.3854,-0.3861,-0.3872,-0.3892,-0.385,-0.383,-0.3822,-0.3922,-0.3923,-0.3923,-0.3924,0,0,-0.4082,-0.4058,-0.4049,-0.4037,-0.4017,-0.3995,-0.3965,-0.3938,-0.3922,-0.3904,-0.3876,-0.3838,-0.3849,-0.3833,-0.3832,-0.3809,-0.3764,-0.3823,-0.3823,-0.3811,-0.3706,-0.3696,-0.3687,-0.3768,-0.3767,-0.3766,-0.3707,0,-0.4029,-0.3976,-0.3976,-0.3926,-0.39,-0.3909,-0.3882,-0.3866,-0.3859,-0.3835,-0.3827,-0.38,-0.3816,-0.3807,-0.3785,-0.3774,-0.3742,-0.3779,-0.374,-0.3739,-0.3743,-0.3677,-0.3666,-0.3612,-0.37,-0.3698,-0.3697,0,-0.396,-0.394,-0.3887,-0.387,-0.3859,-0.3834,-0.381,-0.3788,-0.3769,-0.3765,-0.3748,-0.3751,-0.3717,-0.3741,-0.3694,-0.3719,-0.3703,-0.3696,-0.3694,-0.3688,-0.3714,-0.3667,-0.3594,-0.3585,-0.3686,-0.3687,-0.3687,0,-0.3915,-0.3875,-0.3838,-0.3828,-0.3807,-0.3789,-0.3779,-0.3762,-0.3746,-0.3724,-0.3713,-0.3687,-0.3672,-0.3652,-0.3647,-0.3665,-0.3599,-0.3623,-0.3593,-0.3593,-0.3577,-0.3578,-0.3498,-0.3571,-0.3571,-0.3572,-0.3572,0,-0.3855,-0.3821,-0.3817,-0.3794,-0.3757,-0.3757,-0.372,-0.3712,-0.3696,-0.367,-0.3677,-0.3653,-0.3649,-0.3624,-0.362,-0.358,-0.3574,-0.3569,-0.3568,-0.3567,-0.3567,-0.3555,-0.3558,-0.3569,-0.357,-0.357,-0.3571,0,-0.3797,-0.3793,-0.3753,-0.3737,-0.3732,-0.3705,-0.3691,-0.3668,-0.3663,-0.363,-0.3622,-0.3613,-0.3583,-0.3577,-0.3541,-0.3538,-0.349,-0.3494,-0.3497,-0.3496,-0.3467,-0.3469,-0.3375,-0.3361,-0.3445,-0.3444,-0.3444,0,-0.3758,-0.3733,-0.3714,-0.3698,-0.3687,-0.3661,-0.3645,-0.3644,-0.3627,-0.3603,-0.3583,-0.3554,-0.353,-0.3482,-0.3471,-0.3443,-0.3445,-0.3414,-0.344,-0.344,-0.3441,-0.3442,-0.3438,-0.3408,-0.3407,-0.3406,-0.3406,0,-0.3687,-0.3687,-0.3663,-0.3639,-0.362,-0.36,-0.3582,-0.3568,-0.3565,-0.3544,-0.3514,-0.3496,-0.346,-0.3431,-0.3403,-0.3392,-0.3397,-0.3398,-0.3389,-0.3386,-0.3388,-0.3385,-0.348,-0.3399,-0.34,-0.34,-0.3401,-0.3401,-0.3636,-0.3614,-0.3597,-0.357,-0.3557,-0.3539,-0.3517,-0.3509,-0.3484,-0.3455,-0.3456,-0.3423,-0.3404,-0.3368,-0.3354,-0.3327,-0.3337,-0.3324,-0.3321,-0.3317,-0.3313,-0.3395,-0.3322,-0.3322,-0.3323,-0.3323,-0.3323,0,-0.3564,-0.3554,-0.353,-0.3504,-0.3483,-0.3492,-0.3472,-0.3453,-0.3424,-0.3407,-0.3384,-0.3348,-0.332,-0.3307,-0.3278,-0.3259,-0.326,-0.3251,-0.3251,-0.3248,-0.3308,-0.3317,-0.325,-0.325,-0.325,-0.325,-0.325,-0.325,-0.3524,-0.3486,-0.3483,-0.3438,-0.3428,-0.3396,-0.3383,-0.3367,-0.3352,-0.3313,-0.329,-0.3282,-0.3266,-0.3236,-0.3209,-0.3206,-0.3194,-0.3183,-0.3181,-0.3236,-0.3244,-0.3251,-0.3259,-0.3181,-0.3181,-0.3123,-0.3122,-0.3122]}]]